Weather History for Cherokee, IA

Change the Weather History Date:

Wednesday, May 1, 2013

  Actual Average Record
Temperature  
Mean Temperature 40 °F -  
Max Temperature 48 °F 65 °F 92 °F (1959)
Min Temperature 31 °F 39 °F 24 °F (1966)
Degree Days  
Heating Degree Days 24    
Moisture  
Dew Point 34 °F    
Average Humidity 91    
Maximum Humidity 99    
Minimum Humidity 68    
Precipitation  
Precipitation 0.28 in - - ()
Sea Level Pressure  
Sea Level Pressure 30.27 in    
Wind  
Wind Speed 13 mph (North)    
Max Wind Speed 20 mph    
Max Gust Speed 26 mph    
Visibility 5 miles    
Events Rain , Snow , Thunderstorm    
Averages and records for this station are not official NWS values.
T = Trace of Precipitation, MM = Missing Value Source: NWS Daily Summary

Daily Weather History Graph

Daily Weather History Graph

Search for Another Location

Airport:

Trip Planner

Search our weather history database for the weather conditions in past years. The results will help you decide how hot, cold, wet, or windy it might be!

Date:

Astronomy

May. 01, 2013 Rise Set
Actual Time 6:16 AM CDT 8:22 PM CDT
Civil Twilight 5:45 AM CDT 8:53 PM CDT
Nautical Twilight 5:07 AM CDT 9:32 PM CDT
Astronomical Twilight 4:25 AM CDT 10:14 PM CDT
Moon 1:33 AM CDT (5/1) 11:55 AM CDT (5/1)
Length of Visible Light 15h 08m
Length of Day
14h 06m
Waning Gibbous, 59% of the Moon is Illuminated
May 1
Waning Gibbous
May 2
Last Quarter
May 9
New
May 17
First Quarter
May 24
Full

Hourly Weather History & Observations

Time (CDT) Temp. Windchill Dew Point Humidity Pressure Visibility Wind Dir Wind Speed Gust Speed Precip Events Conditions
12:15 AM 50.2 °F - 40.1 °F 68% 30.02 in 7.0 mi NW 8.1 mph - 0.01 in Rain , Thunderstorm Light Thunderstorms and Rain
12:35 AM 49.1 °F - 42.6 °F 78% 30.05 in 10.0 mi NW 8.1 mph - 0.03 in Rain Light Rain
12:55 AM 48.6 °F - 41.9 °F 78% 30.01 in 5.0 mi NNE 15.0 mph 23.0 mph 0.05 in Rain Rain
1:15 AM 48.2 °F - 42.6 °F 81% 30.06 in 10.0 mi NNW 12.7 mph - N/A Rain Light Rain
1:35 AM 47.3 °F - 41.5 °F 80% 30.08 in 5.0 mi North 13.8 mph 19.6 mph 0.04 in Rain Rain
1:55 AM 46.4 °F 41.1 °F 41.4 °F 83% 30.06 in 10.0 mi North 11.5 mph - 0.05 in Rain Light Rain
2:15 AM 46.0 °F 39.6 °F 41.0 °F 83% 30.02 in 10.0 mi North 15.0 mph 23.0 mph N/A   Overcast
2:35 AM 45.7 °F 39.1 °F 40.1 °F 81% 30.05 in 10.0 mi North 15.0 mph 24.2 mph N/A   Overcast
2:55 AM 45.1 °F 38.4 °F 39.4 °F 80% 30.09 in 10.0 mi North 15.0 mph 20.7 mph N/A Rain Light Rain
3:15 AM 44.8 °F 38.3 °F 40.1 °F 84% 30.06 in 10.0 mi North 13.8 mph - N/A   Light Drizzle
3:35 AM 44.1 °F 39.0 °F 40.6 °F 88% 30.06 in 10.0 mi NNE 9.2 mph 18.4 mph 0.01 in Rain , Thunderstorm Rain
3:55 AM 44.1 °F 39.0 °F 41.0 °F 89% 30.11 in 5.0 mi North 9.2 mph - 0.05 in Rain Heavy Rain
4:15 AM 43.2 °F 36.2 °F 40.3 °F 90% 30.08 in 5.0 mi North 13.8 mph 23.0 mph 0.02 in Rain Heavy Rain
4:35 AM 42.3 °F 35.9 °F 39.9 °F 91% 30.13 in 5.0 mi North 11.5 mph 18.4 mph 0.04 in Rain Rain
4:55 AM 42.1 °F 35.2 °F 40.1 °F 93% 30.12 in 10.0 mi North 12.7 mph 19.6 mph 0.04 in Rain Rain
5:15 AM 42.1 °F 34.5 °F 40.1 °F 93% 30.12 in 7.0 mi North 15.0 mph 19.6 mph N/A   Drizzle
5:35 AM 42.1 °F 36.1 °F 40.1 °F 93% 30.14 in 10.0 mi North 10.4 mph 19.6 mph N/A   Light Drizzle
5:55 AM 41.2 °F 32.7 °F 38.7 °F 91% 30.15 in 10.0 mi North 17.3 mph - 0.01 in Rain Rain
6:15 AM 40.5 °F 32.1 °F 38.5 °F 93% 30.14 in 5.0 mi NNE 16.1 mph 20.7 mph N/A Rain Rain
6:35 AM 40.1 °F 32.4 °F 37.8 °F 91% 30.18 in 7.0 mi North 13.8 mph 26.5 mph N/A Rain Light Rain
6:55 AM 39.2 °F 30.5 °F 37.4 °F 93% 30.22 in 7.0 mi North 16.1 mph 24.2 mph N/A Rain Rain
7:15 AM 37.6 °F 28.1 °F 35.8 °F 93% 30.21 in 3.0 mi North 17.3 mph 25.3 mph N/A Rain Rain
7:35 AM 37.0 °F 27.4 °F 35.4 °F 94% 30.23 in 4.0 mi North 17.3 mph 25.3 mph N/A   Drizzle
7:55 AM 36.3 °F 28.0 °F 34.5 °F 93% 30.23 in 4.0 mi North 12.7 mph 24.2 mph N/A   Drizzle
8:15 AM 35.8 °F 25.1 °F 34.0 °F 93% 30.24 in 3.0 mi North 19.6 mph 25.3 mph N/A   Drizzle
8:35 AM 35.2 °F 25.4 °F 33.4 °F 93% 30.24 in 3.0 mi North 16.1 mph 24.2 mph N/A Rain Rain
8:55 AM 35.2 °F 24.7 °F 33.8 °F 94% 30.22 in 3.0 mi NNE 18.4 mph 23.0 mph N/A   Light Drizzle
9:15 AM 35.6 °F 26.2 °F 33.4 °F 92% 30.24 in 5.0 mi North 15.0 mph 24.2 mph N/A   Light Drizzle
9:35 AM 35.4 °F 25.6 °F 33.3 °F 92% 30.28 in 4.0 mi North 16.1 mph 20.7 mph N/A   Drizzle
9:55 AM 35.1 °F 26.4 °F 33.3 °F 93% 30.26 in 3.0 mi NNE 12.7 mph 18.4 mph N/A   Drizzle
10:15 AM 35.1 °F 26.4 °F 33.4 °F 94% 30.25 in 2.5 mi North 12.7 mph 21.9 mph N/A   Drizzle
10:35 AM 35.2 °F 28.8 °F 33.8 °F 94% 30.29 in 4.0 mi North 8.1 mph - N/A   Drizzle
10:55 AM 35.1 °F 24.8 °F 33.4 °F 94% 30.25 in 3.0 mi NNE 17.3 mph 21.9 mph N/A Rain Light Rain
11:15 AM 34.7 °F 25.1 °F 32.9 °F 93% 30.27 in 4.0 mi North 15.0 mph 19.6 mph N/A Rain Rain
11:35 AM 33.8 °F 24.3 °F 32.2 °F 94% 30.28 in 4.0 mi North 13.8 mph - N/A Snow Light Snow
11:55 AM 33.1 °F 24.9 °F 32.0 °F 96% 30.28 in 2.5 mi NNE 10.4 mph - 0.02 in Snow Light Snow
12:15 PM 33.6 °F 26.2 °F 32.4 °F 95% 30.30 in 3.0 mi North 9.2 mph - 0.01 in Rain Light Rain
12:35 PM 33.8 °F 25.3 °F 32.4 °F 94% 30.31 in 3.0 mi North 11.5 mph - 0.01 in Rain Light Rain
12:55 PM 32.9 °F 24.1 °F 32.0 °F 96% 30.30 in 1.8 mi North 11.5 mph 17.3 mph 0.02 in Snow Light Snow
1:15 PM 32.5 °F 22.7 °F 32.0 °F 98% 30.30 in 2.5 mi North 13.8 mph 20.7 mph N/A Snow Light Snow
1:35 PM 32.0 °F 20.1 °F 31.5 °F 98% 30.32 in 1.5 mi North 19.6 mph 24.2 mph N/A Snow Light Snow
1:55 PM 32.0 °F 20.8 °F 30.7 °F 95% 30.32 in 1.0 mi North 17.3 mph 25.3 mph N/A Snow Light Snow
2:15 PM 32.0 °F 21.6 °F 30.6 °F 94% 30.33 in 1.0 mi North 15.0 mph 24.2 mph 0.01 in Snow Light Snow
2:35 PM 32.0 °F 21.6 °F 30.7 °F 95% 30.34 in 1.2 mi North 15.0 mph 18.4 mph 0.01 in Snow Light Snow
2:55 PM 32.0 °F 21.6 °F 30.7 °F 95% 30.35 in 1.0 mi North 15.0 mph - 0.01 in Snow Light Snow
3:15 PM 32.0 °F 21.6 °F 30.7 °F 95% 30.35 in 0.5 mi North 15.0 mph 25.3 mph N/A Snow Light Snow
3:35 PM 31.8 °F 21.8 °F 30.7 °F 96% 30.35 in 0.5 mi North 13.8 mph 24.2 mph N/A Snow , Thunderstorm Snow
3:55 PM 32.0 °F 23.0 °F 31.1 °F 96% 30.38 in 0.5 mi North 11.5 mph 17.3 mph 0.01 in Snow Snow
4:15 PM 32.0 °F 22.5 °F 31.1 °F 96% 30.36 in 0.5 mi North 12.7 mph 18.4 mph N/A Snow Snow
4:35 PM 32.0 °F 22.1 °F 31.1 °F 96% 30.37 in 0.8 mi North 13.8 mph 18.4 mph N/A Snow Light Snow
4:55 PM 32.0 °F 22.1 °F 31.6 °F 99% 30.38 in 0.8 mi North 13.8 mph 19.6 mph N/A Snow Light Snow
5:15 PM 32.4 °F 22.5 °F 32.0 °F 99% 30.39 in 1.0 mi North 13.8 mph - 0.01 in Snow Light Snow
5:35 PM 32.4 °F 22.5 °F 31.8 °F 98% 30.39 in 0.8 mi North 13.8 mph - 0.01 in Snow Light Snow
5:55 PM 32.4 °F 23.0 °F 32.0 °F 99% 30.40 in 1.0 mi North 12.7 mph 18.4 mph 0.01 in Snow Light Snow
6:15 PM 32.4 °F 22.5 °F 32.0 °F 99% 30.39 in 1.0 mi North 13.8 mph 19.6 mph 0.01 in Snow Light Snow
6:35 PM 32.5 °F 22.7 °F 32.0 °F 98% 30.40 in 1.2 mi North 13.8 mph 20.7 mph 0.01 in Snow Light Snow
6:55 PM 32.5 °F 24.2 °F 32.0 °F 98% 30.41 in 1.5 mi North 10.4 mph 18.4 mph 0.01 in Snow Light Snow
7:15 PM 33.1 °F 23.9 °F 32.0 °F 96% 30.42 in 5.0 mi NNE 12.7 mph 18.4 mph N/A Snow Light Snow
7:35 PM 33.3 °F 24.1 °F 32.0 °F 95% 30.40 in 7.0 mi NNE 12.7 mph - N/A Snow Light Snow
7:55 PM 33.4 °F 25.4 °F 31.8 °F 94% 30.40 in 10.0 mi North 10.4 mph 17.3 mph N/A   Overcast
8:15 PM 33.3 °F 26.4 °F 31.8 °F 94% 30.42 in 5.0 mi North 8.1 mph - N/A Snow Snow
8:35 PM 33.3 °F 27.9 °F 31.8 °F 94% 30.43 in 10.0 mi North 5.8 mph - N/A   Light Drizzle
8:55 PM 33.1 °F 26.9 °F 31.8 °F 95% 30.42 in 10.0 mi NNE 6.9 mph - N/A Rain Light Rain
9:35 PM 35.2 °F 26.6 °F 30.0 °F 81% 30.42 in 10.0 mi North 12.7 mph 16.1 mph N/A Snow Light Snow
9:55 PM 35.6 °F 27.5 °F 29.8 °F 80% 30.43 in 10.0 mi North 11.5 mph 17.3 mph N/A   Overcast
10:15 PM 35.6 °F 27.5 °F 29.3 °F 78% 30.42 in 10.0 mi NNE 11.5 mph 16.1 mph N/A   Overcast
10:35 PM 35.8 °F 30.1 °F 29.3 °F 77% 30.44 in 10.0 mi North 6.9 mph - N/A   Overcast
10:55 PM 35.6 °F 29.9 °F 29.5 °F 78% 30.42 in 10.0 mi North 6.9 mph - N/A   Overcast
11:15 PM 35.6 °F 28.6 °F 29.3 °F 78% 30.42 in 10.0 mi North 9.2 mph - N/A   Overcast
11:35 PM 35.6 °F 29.2 °F 29.7 °F 79% 30.43 in 10.0 mi North 8.1 mph - N/A   Overcast
11:55 PM 35.6 °F 29.2 °F 29.7 °F 79% 30.42 in 10.0 mi North 8.1 mph - N/A   Overcast